• In Hungary
  • List of Countries
  • For 7 days
  • Water Temperature
  • Satellite Maps
  • Weather Map
  • News
  • Weather Widgets
  • user-avatar
    Login

    Hourly Weather San José Costa Rica

    Today, 23 October, Monday

    Time Temperature Precipitation Wind Pressure Humidity
    00:00 +23°C° 0 mm 1 mps 695 mmHg 83%
    01:00 +23°C° 0.3 mm 1 mps 694 mmHg 83%
    02:00 +22°C° 0.3 mm 1 mps 694 mmHg 83%
    03:00 +22°C° 0.3 mm 1 mps 694 mmHg 84%
    04:00 +22°C° 0.2 mm 1 mps 694 mmHg 83%
    05:00 +22°C° 0.2 mm 1 mps 694 mmHg 83%
    06:00 +22°C° 0.2 mm 1 mps 694 mmHg 82%
    07:00 +24°C° 0.2 mm 1 mps 695 mmHg 74%
    08:00 +26°C° 0.2 mm 1 mps 695 mmHg 65%
    09:00 +28°C° 0.2 mm 1 mps 696 mmHg 57%
    10:00 +30°C° 0.1 mm 1 mps 696 mmHg 54%
    11:00 +31°C° 0.1 mm 1 mps 696 mmHg 50%
    12:00 +32°C° 0.1 mm 1 mps 696 mmHg 47%
    13:00 +31°C° 0.1 mm 1 mps 695 mmHg 51%
    14:00 +30°C° 0.1 mm 1 mps 694 mmHg 55%
    15:00 +30°C° 0.1 mm 2 mps 693 mmHg 59%
    16:00 +28°C° 0.3 mm 1 mps 693 mmHg 67%
    17:00 +26°C° 0.3 mm 1 mps 693 mmHg 75%
    18:00 +24°C° 0.3 mm 1 mps 693 mmHg 83%
    19:00 +24°C° 0.2 mm 1 mps 693 mmHg 83%
    20:00 +23°C° 0.2 mm 1 mps 694 mmHg 84%
    21:00 +23°C° 0.2 mm 1 mps 694 mmHg 84%
    22:00 +23°C° 0.4 mm 1 mps 694 mmHg 84%
    23:00 +23°C° 0.4 mm 1 mps 694 mmHg 85%

    Tomorrow, 24 October, Tuesday

    Time Temperature Precipitation Wind Pressure Humidity
    00:00 +23°C° 0.4 mm 1 mps 694 mmHg 85%
    01:00 +23°C° 0.3 mm 1 mps 694 mmHg 85%
    02:00 +22°C° 0.3 mm 1 mps 693 mmHg 85%
    03:00 +22°C° 0.3 mm 1 mps 693 mmHg 85%
    04:00 +22°C° 0.1 mm 1 mps 693 mmHg 84%
    05:00 +22°C° 0.1 mm 1 mps 693 mmHg 84%
    06:00 +22°C° 0.1 mm 1 mps 693 mmHg 84%
    07:00 +24°C° 0 mm 1 mps 694 mmHg 78%
    08:00 +25°C° 0 mm 1 mps 695 mmHg 72%
    09:00 +27°C° 0 mm 1 mps 695 mmHg 67%
    10:00 +28°C° 0 mm 1 mps 695 mmHg 62%
    11:00 +29°C° 0 mm 1 mps 695 mmHg 57%
    12:00 +31°C° 0 mm 1 mps 695 mmHg 52%
    13:00 +30°C° 0.6 mm 1 mps 694 mmHg 55%
    14:00 +29°C° 0.6 mm 1 mps 694 mmHg 58%
    15:00 +29°C° 0.6 mm 1 mps 693 mmHg 61%
    16:00 +27°C° 0.4 mm 1 mps 693 mmHg 67%
    17:00 +25°C° 0.4 mm 1 mps 693 mmHg 74%
    18:00 +23°C° 0.4 mm 1 mps 693 mmHg 81%
    19:00 +23°C° 0.1 mm 1 mps 693 mmHg 82%
    20:00 +21°C° 0.1 mm 2 mps 694 mmHg 84%
    21:00 +21°C° 0.1 mm 2 mps 695 mmHg 85%
    22:00 +21°C° 0.2 mm 2 mps 694 mmHg 85%
    23:00 +21°C° 0.2 mm 2 mps 694 mmHg 86%

    Day after tomorrow, 25 October, Wednesday

    Time Temperature Precipitation Wind Pressure Humidity
    00:00 +20°C° 0.2 mm 2 mps 694 mmHg 86%
    01:00 +20°C° 1 mm 2 mps 694 mmHg 87%
    02:00 +20°C° 1 mm 2 mps 693 mmHg 89%
    03:00 +20°C° 1 mm 2 mps 693 mmHg 91%
    04:00 +20°C° 0.8 mm 2 mps 693 mmHg 90%
    05:00 +20°C° 0.8 mm 2 mps 693 mmHg 90%
    06:00 +20°C° 0.8 mm 2 mps 693 mmHg 89%
    07:00 +20°C° 0.4 mm 2 mps 694 mmHg 88%
    08:00 +21°C° 0.4 mm 2 mps 695 mmHg 87%
    09:00 +21°C° 0.4 mm 2 mps 695 mmHg 86%
    10:00 +21°C° 0.4 mm 2 mps 695 mmHg 85%
    11:00 +22°C° 0.4 mm 3 mps 695 mmHg 84%
    12:00 +22°C° 0.4 mm 3 mps 694 mmHg 83%
    13:00 +21°C° 0.6 mm 3 mps 694 mmHg 85%
    14:00 +21°C° 0.6 mm 3 mps 693 mmHg 86%
    15:00 +20°C° 0.6 mm 3 mps 692 mmHg 87%
    16:00 +20°C° 0.2 mm 3 mps 693 mmHg 85%
    17:00 +20°C° 0.2 mm 4 mps 693 mmHg 82%
    18:00 +20°C° 0.2 mm 4 mps 693 mmHg 79%
    19:00 +20°C° 0 mm 4 mps 694 mmHg 74%
    20:00 +20°C° 0 mm 4 mps 695 mmHg 69%
    21:00 +20°C° 0 mm 4 mps 695 mmHg 63%
    22:00 +21°C° 0 mm 4 mps 695 mmHg 63%
    23:00 +21°C° 0 mm 4 mps 695 mmHg 62%

    26 October, Thursday

    Time Temperature Precipitation Wind Pressure Humidity
    00:00 +21°C° 0 mm 4 mps 694 mmHg 61%
    01:00 +21°C° 0 mm 3 mps 694 mmHg 63%
    02:00 +20°C° 0 mm 3 mps 694 mmHg 64%
    03:00 +20°C° 0 mm 3 mps 693 mmHg 66%
    04:00 +20°C° 0 mm 3 mps 693 mmHg 66%
    05:00 +20°C° 0 mm 3 mps 693 mmHg 66%
    06:00 +20°C° 0 mm 3 mps 694 mmHg 66%
    07:00 +21°C° 0 mm 3 mps 695 mmHg 61%
    08:00 +24°C° 0 mm 3 mps 695 mmHg 57%
    09:00 +25°C° 0 mm 4 mps 696 mmHg 53%
    10:00 +26°C° 0 mm 3 mps 696 mmHg 51%
    11:00 +26°C° 0 mm 3 mps 696 mmHg 49%
    12:00 +27°C° 0 mm 3 mps 695 mmHg 48%
    13:00 +26°C° 0 mm 3 mps 695 mmHg 51%
    14:00 +25°C° 0 mm 3 mps 694 mmHg 55%
    15:00 +23°C° 0 mm 2 mps 693 mmHg 58%
    16:00 +23°C° 0 mm 2 mps 693 mmHg 59%
    17:00 +21°C° 0 mm 2 mps 694 mmHg 60%
    18:00 +21°C° 0 mm 3 mps 694 mmHg 61%
    19:00 +21°C° 0 mm 3 mps 694 mmHg 63%
    20:00 +20°C° 0 mm 3 mps 695 mmHg 65%
    21:00 +20°C° 0 mm 3 mps 695 mmHg 66%
    22:00 +20°C° 0 mm 2 mps 695 mmHg 67%
    23:00 +20°C° 0 mm 2 mps 695 mmHg 69%

    27 October, Friday

    Time Temperature Precipitation Wind Pressure Humidity
    00:00 +20°C° 0 mm 2 mps 694 mmHg 70%
    01:00 +19°C° 0 mm 2 mps 694 mmHg 71%
    02:00 +19°C° 0 mm 2 mps 693 mmHg 72%
    03:00 +19°C° 0 mm 2 mps 693 mmHg 73%
    04:00 +19°C° 0 mm 2 mps 693 mmHg 73%
    05:00 +19°C° 0 mm 2 mps 694 mmHg 73%
    06:00 +19°C° 0 mm 2 mps 694 mmHg 73%
    07:00 +20°C° 0 mm 2 mps 695 mmHg 70%
    08:00 +21°C° 0 mm 2 mps 695 mmHg 67%
    09:00 +23°C° 0 mm 2 mps 696 mmHg 65%
    10:00 +24°C° 0 mm 2 mps 696 mmHg 61%
    11:00 +25°C° 0 mm 2 mps 695 mmHg 57%
    12:00 +27°C° 0 mm 2 mps 695 mmHg 53%
    13:00 +25°C° 0.3 mm 2 mps 694 mmHg 60%
    14:00 +24°C° 0.3 mm 2 mps 694 mmHg 66%
    15:00 +23°C° 0.3 mm 2 mps 693 mmHg 73%
    16:00 +21°C° 0.7 mm 3 mps 693 mmHg 78%
    17:00 +20°C° 0.7 mm 3 mps 694 mmHg 82%
    18:00 +19°C° 0.7 mm 3 mps 694 mmHg 87%
    19:00 +19°C° 0.5 mm 3 mps 694 mmHg 88%
    20:00 +19°C° 0.5 mm 3 mps 695 mmHg 89%
    21:00 +19°C° 0.5 mm 3 mps 695 mmHg 90%
    22:00 +19°C° 1.1 mm 3 mps 695 mmHg 90%
    23:00 +19°C° 1.1 mm 3 mps 695 mmHg 91%

    28 October, Saturday

    Time Temperature Precipitation Wind Pressure Humidity
    00:00 +19°C° 1.1 mm 3 mps 694 mmHg 92%
    01:00 +19°C° 1.9 mm 3 mps 694 mmHg 92%
    02:00 +19°C° 1.9 mm 3 mps 693 mmHg 92%
    03:00 +19°C° 1.9 mm 3 mps 693 mmHg 92%
    04:00 +19°C° 3.4 mm 3 mps 693 mmHg 92%
    05:00 +19°C° 3.4 mm 4 mps 694 mmHg 93%
    06:00 +18°C° 3.4 mm 4 mps 694 mmHg 93%
    07:00 +18°C° 6.4 mm 4 mps 695 mmHg 93%
    08:00 +18°C° 6.4 mm 4 mps 695 mmHg 93%
    09:00 +19°C° 6.4 mm 4 mps 696 mmHg 94%
    10:00 +19°C° 2.5 mm 4 mps 695 mmHg 93%
    11:00 +19°C° 2.5 mm 4 mps 695 mmHg 92%
    12:00 +19°C° 2.5 mm 4 mps 695 mmHg 91%
    13:00 +19°C° 2.5 mm 4 mps 694 mmHg 91%
    14:00 +19°C° 2.5 mm 4 mps 694 mmHg 91%
    15:00 +18°C° 2.5 mm 4 mps 693 mmHg 92%
    16:00 +18°C° 7.1 mm 4 mps 694 mmHg 92%
    17:00 +18°C° 7.1 mm 4 mps 694 mmHg 93%
    18:00 +18°C° 7.1 mm 4 mps 694 mmHg 93%
    19:00 +18°C° 12.1 mm 4 mps 695 mmHg 93%
    20:00 +17°C° 12.1 mm 4 mps 695 mmHg 93%
    21:00 +17°C° 12.1 mm 4 mps 696 mmHg 93%
    22:00 +17°C° 6.9 mm 4 mps 695 mmHg 93%
    23:00 +17°C° 6.9 mm 3 mps 695 mmHg 93%

    29 October, Sunday

    Time Temperature Precipitation Wind Pressure Humidity
    00:00 +17°C° 6.9 mm 3 mps 695 mmHg 94%
    01:00 +17°C° 3.8 mm 3 mps 695 mmHg 94%
    02:00 +17°C° 3.8 mm 3 mps 694 mmHg 94%
    03:00 +17°C° 3.8 mm 2 mps 694 mmHg 94%
    04:00 +17°C° 1.7 mm 2 mps 694 mmHg 93%
    05:00 +17°C° 1.7 mm 2 mps 695 mmHg 93%
    06:00 +17°C° 1.7 mm 3 mps 695 mmHg 93%
    07:00 +17°C° 1 mm 3 mps 695 mmHg 93%
    08:00 +18°C° 1 mm 3 mps 695 mmHg 93%
    09:00 +18°C° 1 mm 3 mps 696 mmHg 92%
    10:00 +18°C° 1.2 mm 3 mps 695 mmHg 92%
    11:00 +18°C° 1.2 mm 3 mps 695 mmHg 92%
    12:00 +18°C° 1.2 mm 3 mps 695 mmHg 91%
    13:00 +19°C° 0.3 mm 3 mps 694 mmHg 89%
    14:00 +19°C° 0.3 mm 3 mps 694 mmHg 86%
    15:00 +20°C° 0.3 mm 3 mps 694 mmHg 84%
    16:00 +19°C° 0.2 mm 3 mps 694 mmHg 85%
    17:00 +19°C° 0.2 mm 2 mps 694 mmHg 87%
    18:00 +18°C° 0.2 mm 2 mps 694 mmHg 88%
    19:00 +18°C° 0.3 mm 2 mps 695 mmHg 88%
    20:00 +18°C° 0.3 mm 2 mps 695 mmHg 89%
    21:00 +18°C° 0.3 mm 2 mps 695 mmHg 89%
    22:00 +18°C° 0.4 mm 2 mps 695 mmHg 90%
    23:00 +18°C° 0.4 mm 2 mps 695 mmHg 90%
    Show more